Location: Gönnheim
(49.4488°N, 8.2383°E)
Time: 16:49:07
(UTC+00:00)

Cosmos 1346 Rocket - Pass Details

Date: 19 May 2025
Orbit: 485 x 499 km, 81.2° (Epoch: 17 June)

Event Time Altitude Azimuth Distance (km) Brightness Sun altitude
Rises 21:06:43 0° 338° (NNW) 2,586 8.0 -14.2°
Reaches altitude 10° 21:09:02 10° 327° (NNW) 1,695 6.8 -14.4°
Maximum altitude 21:12:15 28° 267° (W) 941 4.3 -14.7°
Enters shadow 21:15:18 11° 208° (SSW) 1,629 4.9 -15.0°
